EW2270 Weather Reports


time (UTC)temp
F
wind
direction
speed
knots
gust
knots
rain 1hr
in
rain 24hr
in
rain mn
in
humidity
%
barometer
mb
20260902014506 77 296 1.7 2.6 0.00 0.00 0.00 34 1003.8
20260902013005 78 314 1.7 3.5 0.00 0.00 0.00 34 1003.6
20260902011504 78 320 0.9 4.3 0.00 0.00 0.00 34 1003.6
20260902010006 79 315 1.7 4.3 0.00 0.00 0.00 34 1003.6
20260902004503 79 291 2.6 5.2 0.00 0.00 0.00 33 1003.6
20260902003004 79 326 2.6 7.0 0.00 0.00 0.00 33 1003.4
20260902001501 80 288 3.5 6.1 0.00 0.00 0.00 32 1003.5
20260902000104 80 293 2.6 7.0 0.00 0.00 0.00 32 1003.5
20260901234600 80 299 1.7 6.1 0.00 0.00 0.00 32 1003.5
20260901233059 80 307 0.9 7.0 0.00 0.00 0.00 32 1003.5
20260901231557 80 333 5.2 8.7 0.00 0.00 0.00 33 1003.6
20260901230104 80 345 1.7 8.7 0.00 0.00 0.00 32 1003.8
20260901224554 80 288 3.5 10.4 0.00 0.00 0.00 33 1003.8
20260901223103 79 343 2.6 11.3 0.00 0.00 0.00 33 1004.0
20260901221547 78 255 3.5 7.8 0.00 0.00 0.00 35 1004.2
20260901220105 78 333 3.5 6.1 0.00 0.00 0.00 36 1004.3
20260901214543 77 307 4.3 7.8 0.00 0.00 0.00 37 1004.4
20260901213046 77 39 0.0 4.3 0.00 0.00 0.00 38 1004.6
20260901211539 77 244 0.0 3.5 0.00 0.00 0.00 38 1004.7
20260901210038 76 301 1.7 5.2 0.00 0.00 0.00 39 1004.7
20260901204539 76 250 2.6 5.2 0.00 0.00 0.00 39 1005.2
20260901203037 75 207 4.3 7.0 0.00 0.00 0.00 37 1005.4
20260901201530 74 242 2.6 8.7 0.00 0.00 0.00 38 1005.5
20260901200029 74 292 3.5 6.1 0.00 0.00 0.00 38 1005.6
20260901194525 72 312 0.0 7.8 0.00 0.00 0.00 44 1005.9
20260901193030 71 262 7.8 13.0 0.00 0.00 0.00 45 1006.0
20260901191522 71 294 7.0 8.7 0.00 0.00 0.00 40 1005.7
20260901190019 70 293 4.3 13.9 0.00 0.00 0.00 40 1005.5
20260901184532 70 6 1.7 6.1 0.00 0.00 0.00 41 1006.3
20260901183018 70 319 4.3 7.0 0.00 0.00 0.00 39 1006.1
20260901181521 70 322 2.6 4.3 0.00 0.00 0.00 39 1006.5
20260901180015 69 1 1.7 4.3 0.00 0.00 0.00 38 1006.6
20260901174534 69 46 3.5 7.0 0.00 0.00 0.00 39 1006.0
20260901173008 67 79 2.6 4.3 0.00 0.00 0.00 40 1006.2
20260901171505 67 41 0.0 4.3 0.00 0.00 0.00 42 1006.6
20260901170003 66 46 0.0 1.7 0.00 0.00 0.00 41 1006.9
20260901164503 65 338 0.9 2.6 0.00 0.00 0.00 42 1006.5
20260901163101 65 249 2.6 5.2 0.00 0.00 0.00 45 1006.5
20260901161614 65 7 3.5 5.2 0.00 0.00 0.00 42 1005.8
20260901160115 65 25 0.9 3.5 0.00 0.00 0.00 42 1006.1
20260901154558 64 349 1.7 2.6 0.00 0.00 0.00 44 1006.1
20260901153110 62 118 0.0 3.5 0.00 0.00 0.00 47 1006.3
20260901151558 57 102 1.7 2.6 0.00 0.00 0.00 53 1006.5
20260901150051 56 257 0.0 0.0 0.00 0.00 0.00 55 1006.6
20260901144550 54 257 0.0 2.6 0.00 0.00 0.00 58 1006.3
20260901143102 54 133 0.0 0.9 0.00 0.00 0.00 56 1006.0
20260901141547 54 133 0.0 0.9 0.00 0.00 0.00 57 1005.9
20260901140050 53 133 0.0 0.9 0.00 0.00 0.00 57 1005.8
20260901134545 52 139 0.0 2.6 0.00 0.00 0.00 56 1005.5
20260901133044 52 238 0.0 2.6 0.00 0.00 0.00 56 1005.5
20260901131545 54 141 0.0 1.7 0.00 0.00 0.00 56 1005.5
20260901130041 54 141 0.0 0.9 0.00 0.00 0.00 56 1005.2
20260901124540 53 141 0.0 0.0 0.00 0.00 0.00 56 1005.4
20260901123047 52 141 0.0 0.0 0.00 0.00 0.00 58 1005.2
20260901121543 53 141 0.0 0.9 0.00 0.00 0.00 56 1005.2
20260901120046 53 141 0.0 0.9 0.00 0.00 0.00 56 1005.3
20260901114541 54 141 0.0 0.9 0.00 0.00 0.00 55 1005.2
20260901113036 55 141 0.0 0.9 0.00 0.00 0.00 55 1005.2
20260901111531 55 141 0.0 1.7 0.00 0.00 0.00 55 1005.2
20260901110026 58 141 0.0 1.7 0.00 0.00 0.00 50 1005.2
20260901104525 58 141 0.0 0.0 0.00 0.00 0.00 48 1005.4
20260901103023 58 141 0.0 0.0 0.00 0.00 0.00 49 1005.6
20260901101523 58 141 0.0 0.9 0.00 0.00 0.00 50 1005.7
20260901100021 57 142 0.0 0.9 0.00 0.00 0.00 50 1005.7
20260901094520 59 142 0.0 3.5 0.00 0.00 0.00 48 1005.8
20260901093021 59 165 0.9 3.5 0.00 0.00 0.00 49 1005.9
20260901091519 59 156 2.6 5.2 0.00 0.00 0.00 47 1006.0
20260901090017 58 134 1.7 4.3 0.00 0.00 0.00 47 1005.9
20260901084513 60 141 1.7 3.5 0.00 0.00 0.00 45 1006.1
20260901083013 59 133 1.7 3.5 0.00 0.00 0.00 44 1006.1
20260901081511 60 162 2.6 4.3 0.00 0.00 0.00 42 1006.1
20260901080110 60 155 1.7 3.5 0.00 0.00 0.00 43 1006.0
20260901074508 60 153 1.7 4.3 0.00 0.00 0.00 42 1005.9
20260901073009 61 165 0.9 6.1 0.00 0.00 0.00 40 1005.9
20260901071505 61 199 3.5 5.2 0.00 0.00 0.00 40 1005.8
20260901070001 62 132 0.9 4.3 0.00 0.00 0.00 40 1005.7
20260901064601 62 149 2.6 4.3 0.00 0.00 0.00 39 1005.8
20260901063110 62 145 0.9 3.5 0.00 0.00 0.00 40 1005.7
20260901061627 62 184 1.7 4.3 0.00 0.00 0.00 39 1005.6
20260901060101 63 155 1.7 5.2 0.00 0.00 0.00 38 1005.8
20260901054559 63 150 3.5 5.2 0.00 0.00 0.00 38 1005.8
20260901053109 63 148 0.9 4.3 0.00 0.00 0.00 38 1006.0
20260901051558 63 160 3.5 4.3 0.00 0.00 0.00 37 1006.0
20260901050057 63 134 1.7 5.2 0.00 0.00 0.00 36 1006.0
20260901044602 63 136 3.5 6.1 0.00 0.00 0.00 36 1006.0
20260901043059 65 134 4.3 6.1 0.00 0.00 0.00 35 1005.9
20260901041556 64 143 3.5 5.2 0.00 0.00 0.00 35 1005.9
20260901040055 66 132 1.7 3.5 0.00 0.00 0.00 32 1005.9
20260901034555 69 158 0.0 1.7 0.00 0.00 0.00 31 1005.8
20260901033053 69 131 0.0 1.7 0.00 0.00 0.00 31 1005.7
20260901031558 71 240 0.0 0.9 0.00 0.00 0.00 29 1005.5
20260901030053 73 240 0.0 0.0 0.00 0.00 0.00 28 1005.4
20260901024554 74 94 0.9 2.6 0.00 0.00 0.00 27 1005.3
20260901023051 76 339 0.9 2.6 0.00 0.00 0.00 25 1005.4
20260901021551 79 6 1.7 5.2 0.00 0.00 0.00 23 1005.5
20260901020106 81 17 3.5 7.8 0.00 0.00 0.00 22 1005.6